URO804K EINN-EGHH

Flight info

Callsign URO804K
Flight time 0h 47m
Altitude 33000
Route GATLO DCT LUNIG DCT NORLA DCT FONZU DCT BRIPO
Aircraft A346/H-SDE2E3FGHIJ3J4J5M1RWXY/LB1D1

Departure

Time 2026-05-08 15:29
Airport Shannon Airport (EINN)

Arrival

Time 2026-05-08 16:16
Airport Bournemouth Airport (EGHH)
Time Latitude Longitude Altitude Speed Heading
2026-05-08 15:09 52.69412 -8.92524 31 ft 0 kts 185°
2026-05-08 15:21 52.69428 -8.92521 31 ft 4 kts 185°
2026-05-08 15:22 52.69455 -8.92518 31 ft 4 kts 185°
2026-05-08 15:22 52.69482 -8.92514 28 ft 4 kts 185°
2026-05-08 15:22 52.69501 -8.92511 29 ft 0 kts 185°
2026-05-08 15:25 52.69495 -8.92506 31 ft 2 kts 135°
2026-05-08 15:25 52.69489 -8.92462 31 ft 7 kts 100°
2026-05-08 15:25 52.69480 -8.92369 31 ft 9 kts 84°
2026-05-08 15:25 52.69532 -8.92341 31 ft 11 kts 328°
2026-05-08 15:26 52.69600 -8.92447 31 ft 15 kts 315°
2026-05-08 15:26 52.69691 -8.92593 31 ft 21 kts 315°
2026-05-08 15:26 52.69800 -8.92770 32 ft 24 kts 316°
2026-05-08 15:26 52.69913 -8.92962 44 ft 20 kts 296°
2026-05-08 15:27 52.69879 -8.93167 48 ft 21 kts 231°
2026-05-08 15:27 52.69783 -8.93366 49 ft 24 kts 232°
2026-05-08 15:27 52.69674 -8.93595 48 ft 27 kts 232°
2026-05-08 15:27 52.69558 -8.93847 52 ft 28 kts 232°
2026-05-08 15:28 52.69437 -8.94104 50 ft 25 kts 232°
2026-05-08 15:28 52.69317 -8.94247 52 ft 16 kts 222°
2026-05-08 15:28 52.69332 -8.94313 50 ft 6 kts 353°
2026-05-08 15:28 52.69355 -8.94287 51 ft 2 kts 56°
2026-05-08 15:29 52.69439 -8.94104 50 ft 53 kts 52°
2026-05-08 15:29 52.69819 -8.93303 49 ft 121 kts 52°
2026-05-08 15:29 52.70446 -8.91969 161 ft 164 kts 51°
2026-05-08 15:29 52.71144 -8.90466 859 ft 166 kts 51°
2026-05-08 15:30 52.71845 -8.88926 1693 ft 169 kts 52°
2026-05-08 15:30 52.72287 -8.87094 2205 ft 188 kts 86°
2026-05-08 15:30 52.71828 -8.84918 2634 ft 216 kts 124°
2026-05-08 15:30 52.70708 -8.83119 3077 ft 237 kts 130°
2026-05-08 15:31 52.69757 -8.80817 3645 ft 250 kts 112°
2026-05-08 15:31 52.69105 -8.78096 4451 ft 257 kts 108°
2026-05-08 15:31 52.68467 -8.75331 5431 ft 261 kts 115°
2026-05-08 15:31 52.67481 -8.72791 6410 ft 265 kts 129°
2026-05-08 15:32 52.66213 -8.70552 7373 ft 268 kts 134°
2026-05-08 15:32 52.64878 -8.68375 8363 ft 272 kts 135°
2026-05-08 15:32 52.63533 -8.66206 9337 ft 276 kts 135°
2026-05-08 15:32 52.62150 -8.63970 10278 ft 280 kts 135°
2026-05-08 15:33 52.60738 -8.61670 11039 ft 293 kts 136°
2026-05-08 15:33 52.59243 -8.59235 11614 ft 311 kts 136°
2026-05-08 15:33 52.57658 -8.56655 12165 ft 330 kts 137°
2026-05-08 15:33 52.55973 -8.53919 12688 ft 349 kts 137°
2026-05-08 15:34 52.54201 -8.51038 13189 ft 368 kts 137°
2026-05-08 15:34 52.52338 -8.48008 13772 ft 382 kts 137°
2026-05-08 15:34 52.50438 -8.44916 14597 ft 387 kts 137°
2026-05-08 15:34 52.48538 -8.41827 15480 ft 391 kts 137°
2026-05-08 15:35 52.46597 -8.38677 16315 ft 395 kts 138°
2026-05-08 15:35 52.44626 -8.35488 17163 ft 400 kts 138°
2026-05-08 15:35 52.42629 -8.32262 17998 ft 405 kts 139°
2026-05-08 15:35 52.40616 -8.29006 18750 ft 410 kts 138°
2026-05-08 15:36 52.38640 -8.25564 19443 ft 416 kts 135°
2026-05-08 15:36 52.37369 -8.23210 19925 ft 418 kts 135°
2026-05-08 15:36 52.34803 -8.18448 20847 ft 424 kts 135°
2026-05-08 15:36 52.32809 -8.14754 21522 ft 429 kts 136°
2026-05-08 15:37 52.30847 -8.11125 22177 ft 434 kts 136°
2026-05-08 15:37 52.28836 -8.07413 22789 ft 439 kts 136°
2026-05-08 15:37 52.26801 -8.03663 23466 ft 444 kts 136°
2026-05-08 15:37 52.24724 -7.99840 24048 ft 449 kts 136°
2026-05-08 15:38 52.22641 -7.96014 24623 ft 453 kts 137°
2026-05-08 15:38 52.20538 -7.92158 25192 ft 456 kts 137°
2026-05-08 15:38 52.18417 -7.88275 25767 ft 460 kts 137°
2026-05-08 15:38 52.16294 -7.84395 26360 ft 463 kts 137°
2026-05-08 15:39 52.14107 -7.80401 26916 ft 466 kts 137°
2026-05-08 15:39 52.11970 -7.76507 27460 ft 470 kts 137°
2026-05-08 15:39 52.09783 -7.72528 28010 ft 473 kts 137°
2026-05-08 15:39 52.07579 -7.68523 28599 ft 475 kts 137°
2026-05-08 15:40 52.05377 -7.64526 29430 ft 472 kts 137°
2026-05-08 15:40 52.03185 -7.60549 30319 ft 468 kts 137°
2026-05-08 15:40 52.01020 -7.56627 31049 ft 466 kts 137°
2026-05-08 15:40 51.98851 -7.52708 31664 ft 465 kts 138°
2026-05-08 15:41 51.96710 -7.48851 32152 ft 468 kts 138°
2026-05-08 15:41 51.94518 -7.44910 32587 ft 472 kts 138°
2026-05-08 15:41 51.92306 -7.40940 32993 ft 475 kts 138°
2026-05-08 15:41 51.90087 -7.36964 33052 ft 477 kts 138°
2026-05-08 15:42 51.85626 -7.28981 33051 ft 478 kts 138°
2026-05-08 15:42 51.81190 -7.21067 33045 ft 478 kts 138°
2026-05-08 15:43 51.76719 -7.13116 33043 ft 478 kts 138°
2026-05-08 15:43 51.72237 -7.05175 33045 ft 478 kts 138°
2026-05-08 15:44 51.67760 -6.97162 33045 ft 479 kts 136°
2026-05-08 15:44 51.63721 -6.88625 33043 ft 484 kts 129°
2026-05-08 15:45 51.60226 -6.79262 33045 ft 490 kts 123°
2026-05-08 15:45 51.57375 -6.69250 33043 ft 494 kts 117°
2026-05-08 15:46 51.54793 -6.58986 33047 ft 494 kts 117°
2026-05-08 15:46 51.52205 -6.48759 33048 ft 494 kts 117°
2026-05-08 15:47 51.49611 -6.38597 33046 ft 494 kts 117°
2026-05-08 15:47 51.46992 -6.28402 33046 ft 494 kts 117°
2026-05-08 15:48 51.43034 -6.13083 33039 ft 494 kts 117°
2026-05-08 15:49 51.40387 -6.02900 33041 ft 494 kts 117°
2026-05-08 15:49 51.37747 -5.92789 33038 ft 494 kts 117°
2026-05-08 15:50 51.35083 -5.82628 33043 ft 494 kts 117°
2026-05-08 15:50 51.32408 -5.72473 33041 ft 494 kts 117°
2026-05-08 15:51 51.29729 -5.62346 33038 ft 495 kts 117°
2026-05-08 15:51 51.27055 -5.52282 33034 ft 495 kts 117°
2026-05-08 15:52 51.24343 -5.42121 33038 ft 495 kts 117°
2026-05-08 15:52 51.21631 -5.32002 33031 ft 495 kts 117°
2026-05-08 15:53 51.18908 -5.21890 33029 ft 495 kts 117°
2026-05-08 15:53 51.16182 -5.11812 33032 ft 495 kts 117°
2026-05-08 15:54 51.13440 -5.01714 32994 ft 496 kts 117°
2026-05-08 15:54 51.12056 -4.96638 32531 ft 495 kts 117°
2026-05-08 15:54 51.10686 -4.91623 31972 ft 491 kts 117°
2026-05-08 15:54 51.09328 -4.86661 31456 ft 487 kts 117°
2026-05-08 15:55 51.07977 -4.81734 30860 ft 485 kts 117°
2026-05-08 15:55 51.05271 -4.71906 29515 ft 484 kts 117°
2026-05-08 15:55 51.03935 -4.67068 28825 ft 483 kts 117°
2026-05-08 15:56 51.02585 -4.62187 28122 ft 482 kts 117°
2026-05-08 15:56 51.01235 -4.57317 27447 ft 480 kts 117°
2026-05-08 15:56 50.99888 -4.52468 27035 ft 479 kts 117°
2026-05-08 15:56 50.98545 -4.47640 26601 ft 475 kts 117°
2026-05-08 15:57 50.97214 -4.42865 26152 ft 472 kts 117°
2026-05-08 15:57 50.95888 -4.38119 25700 ft 468 kts 117°
2026-05-08 15:57 50.94569 -4.33406 25269 ft 464 kts 117°
2026-05-08 15:57 50.93280 -4.28812 24829 ft 460 kts 117°
2026-05-08 15:58 50.91981 -4.24193 24378 ft 456 kts 117°
2026-05-08 15:58 50.90692 -4.19617 23948 ft 453 kts 117°
2026-05-08 15:58 50.89408 -4.15069 23482 ft 449 kts 117°
2026-05-08 15:58 50.88137 -4.10581 22990 ft 444 kts 117°
2026-05-08 15:59 50.86875 -4.06133 22542 ft 439 kts 117°
2026-05-08 15:59 50.85631 -4.01755 22106 ft 434 kts 117°
2026-05-08 15:59 50.84387 -3.97384 21667 ft 429 kts 116°
2026-05-08 15:59 50.83248 -3.93121 21244 ft 426 kts 113°
2026-05-08 16:00 50.82326 -3.88628 20805 ft 423 kts 107°
2026-05-08 16:00 50.81675 -3.84039 20376 ft 421 kts 102°
2026-05-08 16:00 50.81215 -3.79474 19962 ft 418 kts 100°
2026-05-08 16:00 50.80793 -3.74953 19552 ft 414 kts 100°
2026-05-08 16:01 50.80376 -3.70461 19133 ft 411 kts 100°
2026-05-08 16:01 50.79954 -3.65977 18706 ft 408 kts 100°
2026-05-08 16:01 50.79528 -3.61524 18260 ft 406 kts 100°
2026-05-08 16:01 50.79110 -3.57184 17905 ft 403 kts 100°
2026-05-08 16:02 50.78686 -3.52820 17333 ft 399 kts 100°
2026-05-08 16:02 50.78262 -3.48501 16899 ft 395 kts 101°
2026-05-08 16:02 50.77838 -3.44199 16495 ft 391 kts 101°
2026-05-08 16:02 50.77416 -3.39934 16083 ft 388 kts 101°
2026-05-08 16:03 50.76997 -3.35730 15659 ft 385 kts 101°
2026-05-08 16:03 50.76581 -3.31571 15252 ft 382 kts 101°
2026-05-08 16:03 50.76164 -3.27409 14859 ft 379 kts 101°
2026-05-08 16:03 50.75751 -3.23305 14442 ft 376 kts 101°
2026-05-08 16:04 50.75336 -3.19206 14018 ft 374 kts 101°
2026-05-08 16:04 50.74932 -3.15221 13570 ft 372 kts 101°
2026-05-08 16:04 50.74521 -3.11187 13114 ft 369 kts 101°
2026-05-08 16:04 50.74111 -3.07176 12680 ft 366 kts 101°
2026-05-08 16:05 50.73704 -3.03215 12245 ft 363 kts 101°
2026-05-08 16:05 50.73296 -2.99254 11816 ft 359 kts 101°
2026-05-08 16:05 50.72895 -2.95374 11390 ft 356 kts 101°
2026-05-08 16:05 50.72498 -2.91539 10992 ft 352 kts 101°
2026-05-08 16:06 50.72108 -2.87782 10828 ft 339 kts 101°
2026-05-08 16:06 50.71736 -2.84208 10710 ft 326 kts 101°
2026-05-08 16:06 50.71374 -2.80734 10588 ft 314 kts 102°
2026-05-08 16:06 50.71042 -2.77383 10464 ft 303 kts 98°
2026-05-08 16:07 50.70950 -2.74118 10336 ft 293 kts 90°
2026-05-08 16:07 50.71135 -2.70960 10256 ft 282 kts 84°
2026-05-08 16:07 50.71429 -2.67920 10162 ft 277 kts 83°
2026-05-08 16:07 50.71733 -2.64946 10094 ft 273 kts 83°
2026-05-08 16:08 50.72040 -2.61928 9979 ft 285 kts 83°
2026-05-08 16:08 50.72357 -2.58779 9854 ft 291 kts 83°
2026-05-08 16:08 50.72670 -2.55593 9395 ft 294 kts 84°
2026-05-08 16:08 50.72882 -2.52416 8983 ft 290 kts 87°
2026-05-08 16:09 50.73054 -2.49260 8404 ft 286 kts 87°
2026-05-08 16:09 50.73165 -2.47158 8046 ft 282 kts 87°
2026-05-08 16:09 50.73382 -2.43110 7361 ft 277 kts 86°
2026-05-08 16:09 50.73549 -2.40092 6829 ft 274 kts 86°
2026-05-08 16:10 50.73717 -2.37083 6295 ft 272 kts 86°
2026-05-08 16:10 50.73885 -2.34111 5744 ft 269 kts 86°
2026-05-08 16:10 50.74053 -2.31181 5202 ft 266 kts 86°
2026-05-08 16:10 50.74217 -2.28298 4660 ft 264 kts 86°
2026-05-08 16:11 50.74383 -2.25337 4062 ft 261 kts 87°
2026-05-08 16:11 50.74539 -2.22533 3523 ft 258 kts 87°
2026-05-08 16:11 50.74693 -2.19727 3056 ft 251 kts 87°
2026-05-08 16:11 50.74842 -2.17050 2827 ft 235 kts 88°
2026-05-08 16:12 50.74976 -2.14620 2817 ft 209 kts 87°
2026-05-08 16:12 50.75099 -2.12448 2868 ft 186 kts 88°
2026-05-08 16:12 50.75208 -2.10429 2874 ft 182 kts 88°
2026-05-08 16:12 50.75313 -2.08428 2880 ft 182 kts 88°
2026-05-08 16:13 50.75418 -2.06452 2758 ft 182 kts 88°
2026-05-08 16:13 50.75524 -2.04427 2564 ft 180 kts 88°
2026-05-08 16:13 50.75629 -2.02490 2341 ft 179 kts 89°
2026-05-08 16:13 50.75730 -2.00580 2038 ft 165 kts 90°
2026-05-08 16:14 50.75810 -1.98857 1774 ft 148 kts 87°
2026-05-08 16:14 50.75955 -1.97253 1621 ft 146 kts 84°
2026-05-08 16:14 50.76138 -1.95681 1417 ft 146 kts 81°
2026-05-08 16:14 50.76374 -1.94118 1234 ft 144 kts 79°
2026-05-08 16:15 50.76631 -1.92578 1017 ft 145 kts 79°
2026-05-08 16:15 50.76891 -1.91038 845 ft 144 kts 82°
2026-05-08 16:15 50.77139 -1.89495 642 ft 145 kts 80°
2026-05-08 16:15 50.77395 -1.87973 459 ft 143 kts 80°
2026-05-08 16:16 50.77648 -1.86443 226 ft 141 kts 80°
2026-05-08 16:16 50.77814 -1.85447 92 ft 140 kts 81°
2026-05-08 16:16 50.78066 -1.83892 53 ft 67 kts 75°
2026-05-08 16:16 50.78162 -1.83323 52 ft 44 kts 75°
2026-05-08 16:17 50.78229 -1.82920 51 ft 25 kts 76°
2026-05-08 16:17 50.78222 -1.82793 51 ft 10 kts 93°
2026-05-08 16:17 50.78231 -1.82775 45 ft 2 kts
2026-05-08 16:17 50.78246 -1.82792 51 ft 2 kts 293°
2026-05-08 16:18 50.78237 -1.82853 51 ft 9 kts 256°
2026-05-08 16:18 50.78215 -1.82990 49 ft 16 kts 256°
2026-05-08 16:18 50.78183 -1.83193 54 ft 22 kts 256°
2026-05-08 16:18 50.78141 -1.83458 53 ft 27 kts 254°
2026-05-08 16:19 50.78090 -1.83758 50 ft 25 kts 255°
2026-05-08 16:19 50.77995 -1.83867 51 ft 20 kts 170°
2026-05-08 16:19 50.77879 -1.83821 51 ft 18 kts 165°
2026-05-08 16:19 50.77791 -1.83785 47 ft 4 kts 166°
2026-05-08 16:20 50.77751 -1.83770 52 ft 7 kts 166°
2026-05-08 16:20 50.77690 -1.83746 52 ft 11 kts 166°
2026-05-08 16:20 50.77649 -1.83764 47 ft 7 kts 278°
2026-05-08 16:20 50.77678 -1.83844 50 ft 11 kts 302°
2026-05-08 16:21 50.77704 -1.83914 51 ft 0 kts 300°